Torna al catalogo

SL-14 DEB

AttivoPO
NORAD 19228·DEBRIS·🇷🇺 Russia

Lanciato Oct 26, 1978 da Plesetsk Cosmodrome

Loading…

Prossimi Passaggi (prossime 24 ore)

TLE

AggiornatoSource: Space-Track

Epoca: Sep 14, 2026, 11:20 UTC

1 19228U 78100X   26257.47224463  .00007175  00000-0  15647-1 0  9996
2 19228  82.4770 256.8398 0140142 125.7928  27.3635 13.25131080757312

Traccia SL-14 DEB in tempo reale con AllMySat

Download on the App Store